QPF
0.00 0.00 0.00 0.00 0.00 0.01 0.05 0.03 0.01 0.03 0.02 0.01 0.00 0.00 0.01 0.00 0.03 0.01 0.01 0.00 0.00 0.00 0.00 0.02 0.04 0.01 0.00 0.00 0.00 0.00 0.00 0.00 0.00 0.01 0.05 0.06 0.00 0.00 0.02 0.02 0.01 0.01 0.00 0.00 0.00 0.00 0.00 0.00 0.00
0.00 0.00 0.00 0.01 0.00 0.01 0.02 0.02 0.06 0.08 0.02 0.00 0.00 0.00 0.00 0.00 0.00 0.00 0.02 0.01 0.00 0.00 0.00 0.00 0.03 0.02 0.00 0.01 0.02 0.01 0.00 0.01 0.02 0.03 0.01 0.03 0.01 0.01 0.00 0.00 0.00 0.00 0.00 0.00 0.00 0.00 0.00 0.00 0.00
0.00 0.00 0.00 0.00 0.00 0.00 0.00 0.00 0.04 0.02 0.00 0.00 0.00 0.00 0.00 0.00 0.00 0.01 0.01 0.01 0.00 0.00 0.00 0.01 0.04 0.01 0.02 0.02 0.01 0.00 0.00 0.01 0.04 0.03 0.06 0.04 0.00 0.00 0.00 0.00 0.00 0.00 0.00 0.00 0.00 0.00 0.00 0.00 0.00
0.00 0.00 0.00 0.00 0.00 0.00 0.00 0.00 0.00 0.00 0.01 0.00 0.00 0.00 0.00 0.00 0.00 0.00 0.00 0.00 0.00 0.00 0.00 0.02 0.06 0.02 0.02 0.01 0.00 0.01 0.01 0.00 0.00 0.00 0.00 0.00 0.00 0.02 0.04 0.01 0.00 0.00 0.00 0.00 0.00 0.00 0.00 0.00 0.00
0.00 0.00 0.00 0.00 0.00 0.00 0.00 0.00 0.00 0.05 0.01 0.00 0.00 0.00 0.01 0.01 0.00 0.00 0.00 0.00 0.00 0.00 0.00 0.01 0.05 0.04 0.02 0.00 0.00 0.01 0.00 0.00 0.01 0.02 0.00 0.00 0.01 0.04 0.01 0.00 0.00 0.00 0.00 0.00 0.00 0.00 0.00 0.00 0.00
0.00 0.00 0.00 0.00 0.00 0.00 0.00 0.00 0.00 0.03 0.01 0.00 0.00 0.00 0.01 0.01 0.00 0.00 0.00 0.00 0.00 0.00 0.01 0.01 0.01 0.00 0.00 0.00 0.00 0.01 0.00 0.00 0.00 0.01 0.00 0.00 0.01 0.00 0.00 0.00 0.00 0.00 0.00 0.00 0.00 0.00 0.00 0.00 0.00
0.00 0.00 0.00 0.00 0.00 0.00 0.00 0.00 0.03 0.04 0.01 0.00 0.00 0.00 0.02 0.01 0.00 0.00 0.00 0.00 0.00 0.00 0.01 0.02 0.01 0.00 0.00 0.00 0.01 0.00 0.01 0.00 0.00 0.00 0.00 0.00 0.00 0.00 0.00 0.00 0.00 0.00 0.00 0.00 0.00 0.00 0.00 0.00 0.00
0.00 0.00 0.00 0.00 0.00 0.00 0.00 0.00 0.00 0.00 0.00 0.00 0.00 0.00 0.01 0.00 0.00 0.00 0.00 0.00 0.00 0.00 0.00 0.00 0.04 0.02 0.00 0.00 0.00 0.00 0.00 0.00 0.00 0.00 0.00 0.00 0.00 0.00 0.00 0.00 0.00 0.00 0.01 0.01 0.00 0.00 0.00 0.00 0.00
0.00 0.00 0.00 0.00 0.00 0.00 0.00 0.00 0.00 0.00 0.00 0.00 0.00 0.00 0.00 0.00 0.00 0.00 0.00 0.00 0.00 0.00 0.00 0.00 0.02 0.00 0.00 0.00 0.00 0.00 0.00 0.00 0.00 0.00 0.01 0.00 0.00 0.00 0.00 0.00 0.03 0.02 0.00 0.00 0.00 0.00 0.00 0.00 0.00
0.00 0.00 0.00 0.00 0.00 0.00 0.00 0.00 0.00 0.00 0.00 0.00 0.00 0.00 0.00 0.00 0.00 0.00 0.00 0.00 0.00 0.00 0.00 0.00 0.00 0.00 0.00 0.00 0.00 0.00 0.00 0.00 0.00 0.00 0.00 0.00 0.00 0.00 0.00 0.00 0.00 0.01 0.00 0.00 0.00 0.00 0.00 0.00 0.00
0.00 0.00 0.00 0.00 0.00 0.00 0.00 0.00 0.00 0.00 0.00 0.00 0.00 0.00 0.00 0.00 0.00 0.00 0.00 0.00 0.00 0.00 0.00 0.00 0.00 0.00 0.00 0.00 0.00 0.00 0.00 0.00 0.00 0.00 0.00 0.03 0.06 0.00 0.00 0.00 0.00 0.00 0.00 0.00 0.00 0.00 0.00 0.00 0.00
0.00 0.00 0.00 0.00 0.00 0.00 0.00 0.00 0.00 0.00 0.00 0.00 0.00 0.00 0.00 0.00 0.00 0.00 0.00 0.00 0.00 0.00 0.00 0.00 0.00 0.00 0.00 0.00 0.00 0.00 0.00 0.00 0.00 0.00 0.00 0.03 0.05 0.01 0.01 0.02 0.04 0.00 0.00 0.00 0.00 0.00 0.00 0.00 0.00
0.00 0.00 0.00 0.00 0.00 0.00 0.00 0.00 0.00 0.00 0.00 0.00 0.00 0.00 0.00 0.00 0.00 0.00 0.00 0.00 0.00 0.00 0.00 0.00 0.00 0.00 0.00 0.00 0.00 0.00 0.00 0.00 0.00 0.00 0.01 0.01 0.04 0.05 0.02 0.03 0.07 0.02 0.00 0.00 0.00 0.00 0.01 0.00 0.00
0.00 0.00 0.00 0.00 0.00 0.00 0.00 0.00 0.00 0.00 0.00 0.00 0.00 0.00 0.00 0.00 0.00 0.00 0.00 0.00 0.00 0.00 0.00 0.00 0.00 0.00 0.00 0.00 0.00 0.00 0.00 0.00 0.00 0.00 0.00 0.02 0.06 0.06 0.01 0.03 0.03 0.04 0.00 0.00 0.00 0.00 0.00 0.00 0.00
0.00 0.00 0.00 0.00 0.00 0.00 0.00 0.00 0.00 0.00 0.00 0.00 0.00 0.00 0.00 0.00 0.00 0.00 0.00 0.00 0.00 0.00 0.00 0.00 0.00 0.00 0.00 0.00 0.00 0.00 0.00 0.00 0.00 0.00 0.00 0.00 0.00 0.01 0.01 0.00 0.00 0.00 0.00 0.00 0.00 0.00 0.00 0.00 0.00
0.00 0.00 0.00 0.00 0.00 0.00 0.00 0.00 0.00 0.00 0.00 0.00 0.00 0.00 0.00 0.00 0.00 0.00 0.00 0.00 0.00 0.00 0.00 0.00 0.00 0.00 0.00 0.00 0.00 0.00 0.00 0.00 0.00 0.00 0.00 0.00 0.00 0.00 0.00 0.00 0.00 0.03 0.00 0.00 0.00 0.00 0.00 0.00 0.00
0.00 0.00 0.00 0.00 0.00 0.00 0.00 0.00 0.00 0.00 0.00 0.00 0.00 0.00 0.00 0.00 0.00 0.00 0.00 0.00 0.00 0.00 0.00 0.00 0.00 0.00 0.00 0.00 0.00 0.00 0.00 0.00 0.00 0.00 0.00 0.00 0.00 0.00 0.00 0.00 0.01 0.03 0.00 0.00 0.00 0.00 0.00 0.00 0.00
0.00 0.00 0.00 0.00 0.00 0.00 0.00 0.00 0.00 0.00 0.00 0.00 0.00 0.00 0.00 0.00 0.00 0.00 0.00 0.00 0.00 0.00 0.00 0.00 0.00 0.00 0.00 0.00 0.00 0.00 0.00 0.00 0.00 0.00 0.00 0.00 0.00 0.00 0.00 0.00 0.00 0.01 0.02 0.02 0.02 0.05 0.00 0.00 0.00
0.00 0.00 0.00 0.00 0.00 0.00 0.00 0.00 0.00 0.00 0.00 0.00 0.00 0.00 0.00 0.00 0.00 0.00 0.00 0.00 0.00 0.00 0.00 0.00 0.00 0.00 0.00 0.00 0.00 0.00 0.00 0.00 0.00 0.00 0.00 0.00 0.00 0.00 0.00 0.00 0.00 0.04 0.04 0.01 0.04 0.03 0.00 0.00 0.00
0.00 0.00 0.00 0.00 0.00 0.00 0.00 0.00 0.00 0.00 0.00 0.00 0.00 0.00 0.00 0.00 0.00 0.00 0.00 0.00 0.00 0.00 0.00 0.00 0.00 0.00 0.00 0.00 0.00 0.00 0.00 0.00 0.00 0.00 0.00 0.00 0.00 0.00 0.00 0.00 0.00 0.04 0.07 0.01 0.00 0.00 0.00 0.03 0.03
0.00 0.00 0.00 0.00 0.00 0.00 0.00 0.00 0.00 0.00 0.00 0.00 0.00 0.00 0.00 0.00 0.00 0.00 0.00 0.00 0.00 0.00 0.00 0.00 0.00 0.00 0.00 0.00 0.00 0.00 0.00 0.00 0.00 0.00 0.00 0.00 0.00 0.00 0.00 0.00 0.00 0.00 0.00 0.00 0.00 0.00 0.02 0.04 0.03
0.00 0.00 0.00 0.00 0.00 0.00 0.00 0.00 0.00 0.00 0.00 0.00 0.00 0.00 0.00 0.00 0.00 0.00 0.00 0.00 0.00 0.00 0.00 0.00 0.00 0.00 0.00 0.00 0.00 0.00 0.00 0.00 0.00 0.00 0.00 0.00 0.00 0.00 0.00 0.00 0.00 0.00 0.00 0.00 0.00 0.01 0.03 0.02 0.01
0.00 0.00 0.00 0.00 0.00 0.00 0.00 0.00 0.00 0.00 0.00 0.00 0.00 0.00 0.00 0.00 0.00 0.00 0.00 0.00 0.00 0.00 0.00 0.00 0.00 0.00 0.00 0.00 0.00 0.00 0.00 0.00 0.00 0.00 0.00 0.00 0.00 0.00 0.00 0.00 0.00 0.00 0.00 0.00 0.00 0.01 0.00 0.00 0.00
0.00 0.00 0.00 0.00 0.00 0.00 0.00 0.00 0.00 0.00 0.00 0.00 0.00 0.00 0.00 0.00 0.00 0.00 0.00 0.00 0.00 0.00 0.00 0.00 0.00 0.00 0.00 0.00 0.00 0.00 0.00 0.00 0.00 0.00 0.00 0.00 0.00 0.00 0.00 0.00 0.00 0.00 0.00 0.00 0.00 0.00 0.00 0.00 0.00
0.00 0.00 0.00 0.00 0.00 0.00 0.00 0.00 0.00 0.00 0.00 0.00 0.00 0.00 0.00 0.00 0.00 0.00 0.00 0.00 0.00 0.00 0.00 0.00 0.00 0.00 0.00 0.00 0.00 0.00 0.00 0.00 0.00 0.00 0.00 0.00 0.00 0.00 0.00 0.00 0.00 0.00 0.00 0.00 0.00 0.00 0.00 0.00 0.00
0.00 0.00 0.00 0.00 0.00 0.00 0.00 0.00 0.00 0.00 0.00 0.00 0.00 0.00 0.00 0.00 0.00 0.00 0.00 0.00 0.00 0.00 0.00 0.00 0.00 0.00 0.00 0.00 0.00 0.00 0.00 0.00 0.00 0.00 0.00 0.00 0.00 0.00 0.00 0.00 0.00 0.00 0.00 0.00 0.00 0.00 0.00 0.00 0.00
0.00 0.00 0.00 0.00 0.00 0.00 0.00 0.00 0.00 0.00 0.00 0.00 0.00 0.00 0.00 0.00 0.00 0.00 0.00 0.00 0.00 0.00 0.00 0.00 0.00 0.00 0.00 0.00 0.00 0.00 0.00 0.00 0.00 0.00 0.00 0.00 0.00 0.00 0.00 0.00 0.00 0.00 0.00 0.00 0.00 0.00 0.00 0.00 0.00
0.00 0.00 0.00 0.00 0.00 0.00 0.00 0.00 0.00 0.00 0.00 0.00 0.00 0.00 0.00 0.00 0.00 0.00 0.00 0.00 0.00 0.00 0.00 0.00 0.00 0.00 0.00 0.00 0.00 0.00 0.00 0.00 0.00 0.00 0.00 0.00 0.00 0.00 0.00 0.00 0.00 0.00 0.00 0.00 0.00 0.00 0.00 0.00 0.00
0.00 0.00 0.00 0.00 0.00 0.00 0.00 0.00 0.00 0.00 0.00 0.00 0.00 0.00 0.00 0.00 0.00 0.00 0.00 0.00 0.00 0.00 0.00 0.00 0.00 0.00 0.00 0.00 0.00 0.00 0.00 0.00 0.00 0.00 0.00 0.00 0.00 0.00 0.00 0.00 0.00 0.00 0.00 0.00 0.00 0.00 0.00 0.00 0.00
0.00 0.00 0.00 0.00 0.00 0.00 0.00 0.00 0.00 0.00 0.00 0.00 0.00 0.00 0.00 0.00 0.00 0.00 0.00 0.00 0.00 0.00 0.00 0.00 0.00 0.00 0.00 0.00 0.00 0.00 0.00 0.00 0.00 0.00 0.00 0.00 0.00 0.00 0.00 0.00 0.00 0.00 0.00 0.00 0.00 0.00 0.00 0.00 0.00
MSLP
1009.66 1009.17 1008.81 1008.45 1007.14 1005.50 1005.68 1007.17 1008.41 1009.34 1009.98 1011.02 1011.08 1011.00 1012.38 1012.80 1012.51 1013.65 1014.43 1014.87 1014.97 1015.26 1015.76 1016.09 1016.38 1016.35 1016.45 1016.45 1016.41 1016.50 1016.62 1016.63 1016.64 1016.61 1016.82 1016.58 1016.61 1016.64 1016.68 1016.71 1016.72 1016.72 1016.74 1016.81 1016.86 1016.85 1016.85 1016.89 1016.94
1008.51 1008.94 1008.55 1006.88 1005.56 1004.20 1005.38 1006.63 1007.58 1008.94 1010.03 1010.75 1011.33 1011.57 1012.20 1013.31 1013.97 1014.09 1014.51 1014.98 1014.97 1015.21 1015.52 1016.06 1016.64 1016.60 1016.73 1016.72 1016.75 1016.71 1016.85 1016.91 1016.90 1016.94 1016.95 1016.94 1016.91 1016.89 1016.89 1016.87 1016.93 1016.99 1017.03 1017.05 1017.06 1017.02 1017.00 1016.94 1016.94
1008.55 1008.21 1006.79 1005.10 1003.97 1004.23 1005.04 1006.01 1007.78 1008.67 1009.54 1010.29 1010.91 1012.19 1012.62 1013.89 1014.45 1014.58 1014.70 1015.15 1015.31 1015.52 1015.79 1016.47 1016.87 1016.86 1016.97 1016.92 1017.00 1017.06 1017.16 1017.16 1017.18 1017.20 1017.27 1017.24 1017.22 1017.20 1017.13 1017.10 1017.21 1017.24 1017.24 1017.22 1017.18 1017.08 1017.06 1017.03 1016.93
1007.97 1007.17 1006.17 1004.14 1003.92 1005.00 1005.15 1006.09 1007.91 1008.60 1009.54 1010.46 1010.98 1012.57 1014.20 1014.17 1015.10 1015.21 1015.42 1015.14 1015.40 1015.72 1015.82 1016.88 1016.99 1017.04 1017.07 1017.15 1017.22 1017.26 1017.39 1017.41 1017.40 1017.40 1017.44 1017.50 1017.56 1017.45 1017.47 1017.47 1017.49 1017.49 1017.47 1017.39 1017.34 1017.23 1017.11 1017.05 1016.98
1007.14 1005.80 1003.57 1003.50 1004.28 1005.21 1005.69 1006.48 1007.33 1007.86 1008.91 1010.37 1011.01 1013.03 1014.26 1015.16 1015.67 1015.58 1015.76 1015.48 1015.50 1015.86 1016.13 1016.56 1017.11 1017.37 1017.37 1017.44 1017.44 1017.44 1017.48 1017.55 1017.55 1017.53 1017.58 1017.67 1017.74 1017.79 1017.72 1017.69 1017.67 1017.63 1017.61 1017.47 1017.41 1017.30 1017.16 1016.95 1016.85
1005.70 1005.00 1002.89 1002.91 1004.48 1005.52 1006.18 1006.70 1007.28 1008.09 1009.10 1010.28 1011.33 1012.63 1014.84 1015.64 1015.86 1016.01 1016.32 1015.77 1015.15 1015.75 1016.06 1016.53 1017.41 1017.48 1017.62 1017.62 1017.63 1017.62 1017.64 1017.66 1017.74 1017.81 1017.84 1017.82 1017.78 1017.82 1017.80 1017.68 1017.60 1017.53 1017.52 1017.42 1017.30 1017.22 1017.04 1016.84 1016.76
1005.08 1003.76 1003.19 1003.08 1003.98 1004.85 1006.03 1006.76 1007.25 1008.15 1008.89 1009.59 1010.75 1012.08 1014.75 1015.46 1015.86 1015.74 1016.35 1016.33 1016.84 1016.24 1016.10 1016.37 1016.84 1017.60 1017.74 1017.74 1017.74 1017.79 1017.86 1017.88 1017.96 1017.99 1017.95 1017.93 1017.95 1017.89 1017.76 1017.65 1017.50 1017.41 1017.42 1017.27 1017.18 1017.06 1016.93 1016.75 1016.62
1004.96 1003.76 1002.87 1002.94 1003.24 1004.34 1005.98 1006.73 1007.56 1007.87 1008.99 1010.04 1010.56 1011.29 1013.47 1014.32 1015.10 1016.23 1016.40 1016.21 1017.05 1016.47 1016.11 1016.51 1016.99 1017.14 1016.97 1017.19 1017.97 1017.98 1018.04 1018.08 1018.11 1017.99 1017.95 1017.93 1017.74 1017.66 1017.67 1017.34 1017.34 1017.36 1017.25 1017.21 1017.09 1017.00 1016.92 1016.77 1016.57
1005.04 1003.02 1002.28 1002.73 1003.21 1004.45 1006.07 1006.72 1008.11 1008.80 1009.52 1010.16 1010.78 1010.88 1012.48 1014.11 1015.11 1015.49 1016.63 1016.83 1017.01 1016.39 1016.33 1016.45 1016.80 1017.27 1017.47 1017.26 1017.84 1018.03 1018.10 1018.08 1017.92 1017.79 1017.92 1017.45 1016.78 1016.82 1016.65 1017.16 1017.37 1017.24 1017.24 1017.14 1017.02 1016.89 1016.80 1016.61 1016.26
1003.96 1002.65 1002.58 1003.18 1003.44 1004.58 1005.83 1006.58 1007.86 1008.68 1009.71 1010.53 1011.03 1011.65 1013.20 1014.51 1015.36 1015.54 1016.24 1015.86 1015.99 1016.05 1016.22 1016.10 1016.53 1016.95 1017.18 1017.00 1017.60 1017.65 1017.57 1017.27 1017.43 1017.60 1017.63 1016.93 1017.14 1017.23 1017.03 1017.03 1017.21 1017.12 1017.08 1016.96 1016.87 1016.75 1016.53 1016.25 1015.11
1003.52 1002.54 1003.13 1003.42 1003.95 1004.60 1005.75 1006.85 1007.68 1008.29 1008.99 1010.09 1010.91 1012.14 1013.13 1014.15 1015.17 1015.30 1015.50 1015.42 1015.52 1015.75 1015.99 1016.36 1016.57 1016.97 1016.74 1017.14 1017.26 1017.22 1017.24 1017.24 1017.36 1017.71 1017.66 1017.54 1017.29 1017.08 1016.49 1016.43 1016.26 1016.44 1016.70 1015.74 1015.92 1015.83 1015.45 1015.60 1015.32
1002.91 1003.36 1003.31 1003.83 1004.55 1004.99 1005.73 1006.86 1007.51 1008.11 1009.01 1009.96 1011.06 1012.15 1012.83 1013.47 1014.63 1015.20 1015.24 1015.41 1015.43 1015.68 1015.90 1016.34 1016.67 1017.19 1017.25 1017.32 1017.08 1017.29 1017.18 1017.23 1017.02 1017.49 1017.65 1017.45 1016.83 1016.81 1017.18 1017.24 1017.18 1016.45 1016.28 1016.22 1016.02 1015.48 1015.90 1015.48 1015.40
1002.88 1003.57 1003.95 1004.42 1005.08 1005.41 1006.37 1006.86 1007.92 1009.07 1009.87 1010.36 1011.42 1012.14 1012.62 1013.01 1014.07 1014.56 1015.30 1015.29 1015.36 1015.80 1016.09 1016.42 1016.95 1017.40 1017.55 1017.68 1017.49 1017.63 1017.37 1017.16 1017.43 1017.30 1017.63 1017.47 1017.50 1017.66 1017.18 1017.23 1017.27 1016.70 1016.39 1016.16 1016.04 1015.76 1015.74 1015.66 1015.16
1003.34 1003.73 1004.34 1004.85 1005.49 1006.00 1006.31 1007.46 1008.22 1010.10 1010.26 1011.00 1011.95 1012.20 1012.40 1012.71 1013.59 1013.96 1014.50 1015.33 1015.58 1015.71 1016.09 1016.57 1017.03 1017.36 1017.54 1017.60 1017.84 1017.65 1017.58 1017.54 1017.37 1017.27 1017.48 1017.59 1017.75 1017.74 1016.93 1016.73 1016.45 1016.68 1016.44 1016.35 1016.15 1016.17 1015.80 1015.54 1015.01
1003.55 1003.74 1004.40 1004.85 1005.33 1005.75 1006.25 1007.16 1007.95 1010.35 1011.38 1011.98 1012.45 1012.48 1012.48 1012.70 1013.47 1013.72 1014.29 1014.68 1015.69 1015.63 1016.00 1016.55 1016.94 1017.14 1017.55 1017.76 1017.77 1017.69 1017.56 1017.30 1017.38 1017.47 1017.77 1017.82 1017.69 1017.64 1017.50 1016.71 1016.54 1016.44 1016.48 1016.24 1016.04 1015.84 1015.41 1015.14 1014.71
1003.05 1003.00 1002.82 1004.05 1004.95 1005.56 1006.12 1006.01 1008.57 1010.49 1011.51 1012.33 1012.74 1012.60 1012.57 1012.81 1013.12 1013.50 1014.26 1014.72 1015.59 1015.47 1016.04 1016.54 1016.61 1017.04 1017.43 1017.73 1017.76 1017.50 1017.51 1017.42 1017.37 1017.40 1017.44 1017.82 1017.73 1017.56 1017.09 1016.59 1016.69 1017.02 1016.23 1015.96 1015.89 1015.76 1015.47 1015.21 1014.92
1002.31 1001.36 1002.26 1003.10 1004.31 1004.80 1005.71 1005.54 1008.32 1010.14 1011.24 1012.06 1012.48 1012.76 1013.01 1012.87 1012.94 1013.33 1013.82 1014.30 1014.82 1015.46 1016.05 1016.52 1016.85 1017.03 1017.38 1017.72 1017.51 1017.69 1017.80 1017.53 1017.36 1017.34 1017.25 1017.91 1017.69 1017.58 1017.23 1016.74 1016.78 1016.91 1016.20 1016.22 1016.17 1015.95 1015.83 1015.32 1015.05
1000.41 1001.21 1001.54 1002.10 1003.16 1004.26 1004.58 1005.12 1007.38 1008.89 1009.71 1011.00 1011.99 1012.26 1012.43 1012.46 1012.50 1012.94 1013.55 1014.00 1014.46 1015.29 1015.95 1016.46 1016.81 1017.07 1017.41 1017.38 1017.73 1017.37 1017.35 1017.32 1017.29 1017.26 1017.32 1017.76 1017.59 1017.65 1017.40 1016.68 1017.03 1016.93 1016.63 1016.62 1016.64 1016.68 1016.20 1015.67 1015.34
1000.70 1000.83 1000.91 1001.41 1002.44 1003.28 1003.43 1003.95 1005.33 1007.44 1008.16 1008.87 1009.97 1011.00 1011.21 1011.40 1011.86 1012.48 1013.24 1013.78 1014.32 1015.00 1015.64 1016.19 1016.63 1017.01 1017.33 1017.42 1017.24 1017.13 1016.94 1016.97 1017.09 1017.16 1017.65 1017.77 1017.71 1017.67 1017.41 1016.73 1016.73 1016.81 1016.92 1017.01 1016.91 1016.51 1015.89 1015.52 1015.65
1000.91 1000.72 1000.82 1001.22 1002.20 1002.63 1002.15 1002.75 1003.52 1005.50 1006.46 1007.12 1007.97 1008.87 1009.59 1010.29 1011.02 1011.86 1012.63 1013.31 1013.95 1014.55 1015.20 1015.85 1016.33 1016.86 1017.26 1017.22 1017.32 1017.13 1017.16 1017.07 1017.16 1017.21 1017.59 1017.64 1017.72 1017.66 1017.15 1017.27 1016.89 1017.13 1016.96 1017.03 1017.07 1016.98 1016.18 1016.18 1016.40
1000.42 1000.35 1000.44 1000.95 1001.70 1002.10 1001.88 1001.23 1002.00 1003.77 1005.17 1005.86 1006.67 1007.51 1008.32 1008.94 1009.83 1010.88 1011.83 1012.59 1013.31 1013.93 1014.66 1015.32 1016.00 1016.53 1017.00 1017.06 1017.27 1017.47 1017.51 1017.49 1017.27 1017.07 1017.09 1017.20 1017.64 1017.60 1017.50 1017.29 1017.20 1017.12 1017.02 1016.68 1017.16 1016.98 1016.89 1016.50 1015.84
999.53 1000.11 1000.50 1000.75 1001.08 1000.08 1001.13 999.58 1000.37 1001.74 1003.26 1004.36 1005.20 1006.00 1006.88 1007.85 1008.93 1009.90 1010.96 1011.88 1012.53 1013.24 1014.04 1014.90 1015.58 1016.19 1016.65 1017.00 1016.92 1017.07 1016.81 1016.61 1016.56 1017.00 1017.06 1017.33 1017.49 1017.41 1017.23 1017.27 1017.25 1017.30 1016.89 1017.26 1016.99 1017.12 1017.18 1016.93 1016.10
999.18 999.72 1000.28 1000.49 1000.43 1000.18 999.95 999.91 998.47 999.90 1001.31 1002.33 1003.51 1004.56 1005.54 1006.67 1007.76 1008.70 1009.94 1010.98 1011.84 1012.60 1013.27 1014.13 1014.98 1015.68 1016.19 1016.49 1016.77 1016.87 1017.04 1016.61 1016.88 1016.88 1017.25 1017.41 1017.37 1017.23 1017.07 1017.20 1017.24 1017.33 1016.84 1017.16 1017.25 1017.34 1017.41 1017.00 1016.64
999.45 1000.05 1000.24 1000.34 1000.04 999.26 999.08 999.03 997.12 997.66 998.76 1000.12 1001.91 1003.20 1004.38 1005.45 1006.72 1007.77 1008.98 1010.12 1011.03 1011.84 1012.55 1013.29 1014.19 1015.04 1015.63 1016.04 1016.40 1016.75 1016.68 1016.78 1016.61 1016.78 1016.82 1016.74 1016.64 1016.65 1016.89 1017.09 1017.25 1017.26 1017.12 1017.16 1017.24 1017.55 1017.84 1017.68 1017.42
999.05 999.36 999.23 999.31 998.99 998.29 998.38 998.34 996.50 997.00 997.75 998.38 999.75 1001.54 1003.12 1004.38 1005.66 1006.83 1007.87 1008.96 1010.03 1010.81 1011.64 1012.49 1013.40 1014.26 1014.89 1015.36 1015.75 1016.24 1016.61 1016.80 1016.85 1016.94 1016.61 1016.58 1016.31 1016.26 1016.57 1016.96 1017.05 1016.93 1017.14 1017.31 1017.30 1017.87 1017.99 1018.03 1017.85
998.31 998.20 997.71 997.78 998.02 997.43 998.46 997.36 996.40 996.65 996.97 997.49 998.19 1000.16 1002.04 1003.30 1004.52 1005.73 1006.80 1008.00 1009.03 1009.91 1010.86 1011.73 1012.54 1013.44 1014.04 1014.57 1015.09 1015.63 1016.09 1016.22 1016.26 1016.43 1016.48 1016.36 1016.17 1016.17 1016.46 1016.63 1016.66 1016.94 1017.30 1017.51 1017.87 1017.86 1017.99 1018.37 1018.27
997.48 997.41 997.48 997.39 997.63 997.15 996.39 996.66 996.27 995.93 996.44 996.74 997.64 999.09 1000.91 1002.34 1003.44 1004.76 1005.87 1007.01 1008.05 1009.00 1009.94 1010.85 1011.69 1012.58 1013.14 1013.80 1014.47 1015.01 1015.51 1015.84 1015.54 1015.93 1016.24 1016.16 1016.31 1016.24 1016.53 1016.44 1016.80 1017.19 1017.48 1017.82 1018.03 1017.95 1018.24 1018.44 1018.59
996.32 997.41 997.20 996.99 997.07 996.51 995.79 995.53 994.98 995.38 995.43 996.53 997.29 998.61 1000.27 1001.74 1002.73 1003.99 1005.00 1006.17 1007.20 1008.19 1009.16 1010.16 1010.93 1011.70 1012.36 1013.04 1013.71 1014.30 1014.83 1015.25 1015.50 1015.73 1015.89 1015.94 1016.06 1016.31 1016.37 1016.61 1017.02 1017.36 1017.70 1018.04 1018.09 1018.19 1018.54 1018.67 1018.55
996.59 995.99 996.52 996.75 996.71 995.75 995.31 994.42 994.51 994.88 995.41 996.14 997.07 998.55 999.86 1000.91 1001.95 1003.16 1004.15 1005.42 1006.50 1007.37 1008.25 1009.18 1010.10 1010.87 1011.62 1012.32 1012.97 1013.63 1014.04 1014.51 1014.92 1015.07 1015.32 1015.57 1015.79 1016.06 1016.29 1016.64 1017.09 1017.49 1017.92 1018.25 1018.37 1018.44 1018.61 1018.78 1019.01
996.01 995.81 996.12 995.68 996.14 995.92 995.02 993.75 994.22 995.00 995.32 995.82 996.89 998.29 999.62 1000.42 1001.41 1002.53 1003.55 1004.72 1005.87 1006.56 1007.35 1008.25 1009.16 1009.99 1010.75 1011.60 1012.39 1012.96 1013.43 1013.81 1014.04 1014.41 1014.72 1015.02 1015.32 1015.62 1016.13 1016.65 1017.14 1017.61 1018.04 1018.34 1018.38 1018.32 1018.56 1018.71 1018.88
Thickness
5813 5815 5817 5809 5794 5806 5788 5779 5787 5774 5774 5778 5786 5786 5767 5771 5774 5756 5781 5782 5781 5778 5773 5771 5770 5770 5770 5770 5770 5770 5768 5768 5767 5766 5764 5764 5764 5763 5763 5760 5759 5758 5757 5755 5754 5753 5752 5751 5749
5822 5817 5812 5812 5792 5793 5787 5800 5787 5783 5784 5788 5783 5784 5776 5762 5772 5776 5776 5782 5781 5778 5776 5772 5769 5769 5769 5769 5769 5769 5767 5766 5765 5765 5763 5762 5761 5762 5761 5760 5758 5757 5757 5755 5753 5752 5751 5750 5749
5823 5823 5810 5811 5809 5788 5787 5804 5791 5795 5799 5791 5786 5784 5781 5763 5772 5773 5782 5779 5778 5776 5774 5769 5768 5769 5769 5770 5768 5768 5767 5765 5764 5763 5762 5760 5759 5760 5760 5760 5757 5756 5755 5755 5753 5752 5751 5750 5749
5820 5819 5819 5810 5798 5801 5804 5806 5796 5793 5796 5794 5793 5768 5771 5781 5770 5775 5777 5779 5779 5776 5775 5768 5769 5769 5770 5769 5768 5768 5767 5765 5764 5763 5761 5758 5757 5757 5758 5757 5755 5754 5753 5753 5751 5750 5749 5748 5748
5827 5822 5816 5807 5799 5802 5810 5811 5808 5799 5798 5786 5792 5764 5765 5772 5773 5775 5774 5778 5778 5777 5774 5772 5769 5768 5769 5769 5768 5768 5766 5764 5763 5762 5760 5758 5756 5755 5755 5754 5754 5754 5752 5751 5749 5748 5747 5747 5747
5816 5823 5811 5799 5795 5801 5806 5812 5808 5800 5798 5790 5780 5772 5758 5769 5769 5770 5771 5777 5781 5779 5777 5774 5768 5768 5768 5768 5768 5766 5764 5762 5761 5759 5757 5755 5754 5754 5755 5754 5753 5753 5753 5751 5750 5746 5744 5746 5745
5814 5817 5804 5810 5802 5802 5803 5817 5804 5797 5795 5792 5796 5773 5760 5764 5770 5775 5772 5775 5770 5775 5778 5776 5772 5768 5767 5767 5766 5763 5761 5760 5759 5758 5757 5755 5754 5754 5754 5754 5753 5752 5752 5753 5752 5750 5747 5748 5748
5825 5823 5810 5814 5806 5800 5811 5812 5812 5806 5793 5804 5802 5779 5762 5774 5777 5772 5773 5777 5771 5775 5778 5776 5772 5771 5773 5769 5763 5762 5760 5760 5759 5759 5757 5756 5756 5756 5754 5756 5753 5754 5754 5754 5753 5752 5751 5750 5750
5835 5818 5808 5809 5809 5807 5815 5804 5807 5810 5795 5797 5798 5798 5791 5785 5779 5777 5767 5769 5769 5776 5778 5776 5774 5770 5768 5769 5764 5762 5761 5761 5762 5762 5760 5762 5765 5762 5762 5759 5758 5758 5757 5757 5756 5755 5754 5754 5756
5825 5818 5815 5828 5828 5813 5814 5811 5802 5796 5787 5784 5789 5797 5788 5780 5773 5771 5766 5773 5774 5776 5778 5781 5776 5773 5771 5772 5767 5766 5766 5767 5766 5764 5763 5768 5764 5762 5762 5762 5761 5761 5760 5759 5758 5758 5758 5760 5766
5831 5820 5829 5830 5832 5830 5815 5807 5812 5800 5788 5790 5784 5783 5784 5778 5771 5773 5774 5777 5778 5780 5781 5780 5778 5774 5776 5773 5771 5770 5770 5769 5767 5765 5765 5765 5765 5765 5769 5768 5768 5766 5764 5769 5766 5765 5766 5764 5765
5824 5832 5835 5832 5831 5825 5814 5816 5806 5807 5800 5804 5796 5790 5787 5781 5773 5770 5772 5776 5780 5781 5782 5781 5778 5774 5773 5773 5774 5770 5770 5770 5772 5768 5767 5767 5770 5770 5766 5763 5762 5766 5766 5766 5766 5768 5763 5766 5766
5829 5827 5831 5831 5826 5824 5819 5810 5802 5796 5802 5805 5795 5790 5785 5787 5779 5780 5776 5780 5783 5779 5780 5780 5777 5774 5772 5772 5771 5769 5769 5771 5770 5772 5769 5769 5767 5764 5766 5764 5762 5765 5766 5766 5766 5767 5766 5765 5768
5834 5830 5823 5823 5817 5817 5810 5803 5805 5788 5801 5793 5785 5785 5788 5787 5783 5783 5782 5777 5778 5781 5780 5780 5778 5775 5774 5773 5771 5772 5770 5769 5771 5774 5772 5770 5767 5765 5769 5769 5770 5767 5767 5766 5766 5765 5767 5767 5770
5834 5816 5818 5817 5818 5812 5819 5797 5800 5790 5786 5778 5777 5781 5785 5786 5783 5783 5783 5782 5778 5782 5783 5781 5780 5778 5776 5774 5774 5774 5773 5774 5774 5773 5771 5769 5768 5768 5768 5771 5771 5770 5768 5769 5769 5769 5771 5772 5774
5822 5827 5810 5821 5818 5818 5814 5797 5795 5790 5780 5771 5772 5776 5780 5781 5783 5787 5786 5785 5780 5785 5783 5783 5785 5782 5778 5777 5777 5778 5777 5777 5777 5777 5776 5772 5770 5770 5772 5774 5772 5768 5772 5773 5772 5772 5772 5773 5773
5820 5815 5811 5813 5825 5818 5809 5806 5798 5792 5781 5771 5773 5772 5771 5779 5784 5787 5790 5789 5788 5787 5785 5783 5784 5783 5782 5779 5782 5779 5778 5779 5780 5779 5780 5773 5773 5773 5774 5776 5774 5771 5775 5772 5771 5771 5770 5770 5772
5820 5811 5819 5812 5823 5817 5811 5811 5802 5798 5794 5780 5773 5775 5776 5779 5784 5789 5790 5792 5792 5790 5788 5786 5787 5786 5784 5784 5782 5784 5784 5784 5783 5783 5782 5777 5776 5775 5775 5778 5774 5772 5773 5771 5769 5765 5768 5769 5769
5830 5824 5820 5828 5832 5818 5816 5817 5815 5804 5804 5799 5792 5783 5785 5788 5795 5796 5795 5795 5794 5792 5790 5789 5788 5788 5787 5786 5786 5787 5788 5789 5788 5786 5782 5779 5778 5776 5777 5780 5778 5775 5772 5769 5769 5770 5770 5769 5768
5822 5817 5817 5828 5830 5822 5827 5819 5829 5816 5812 5813 5808 5802 5799 5799 5798 5798 5798 5798 5797 5795 5794 5792 5792 5791 5790 5791 5790 5792 5790 5790 5789 5787 5783 5782 5780 5779 5781 5777 5778 5774 5774 5771 5768 5765 5767 5765 5762
5820 5817 5819 5814 5822 5826 5823 5823 5827 5827 5822 5823 5822 5818 5813 5811 5807 5804 5802 5802 5803 5801 5798 5797 5796 5795 5794 5795 5793 5790 5789 5788 5788 5790 5790 5786 5782 5781 5780 5779 5778 5777 5776 5776 5770 5768 5763 5758 5766
5812 5835 5826 5818 5810 5811 5828 5810 5829 5834 5823 5824 5826 5826 5823 5820 5818 5814 5810 5808 5808 5808 5806 5804 5801 5799 5797 5796 5796 5793 5792 5791 5794 5791 5792 5788 5785 5784 5784 5781 5779 5776 5777 5773 5773 5769 5764 5761 5759
5823 5839 5825 5821 5814 5816 5821 5808 5845 5848 5825 5830 5834 5835 5834 5831 5827 5822 5817 5816 5816 5816 5813 5811 5807 5804 5802 5800 5798 5796 5790 5796 5795 5795 5790 5788 5787 5786 5786 5783 5780 5778 5780 5775 5771 5766 5762 5763 5759
5841 5822 5819 5820 5817 5798 5821 5817 5843 5849 5848 5849 5846 5844 5842 5839 5836 5832 5829 5826 5822 5824 5822 5819 5813 5808 5806 5804 5801 5798 5796 5794 5796 5794 5791 5793 5794 5792 5787 5784 5781 5778 5777 5775 5770 5764 5758 5755 5752
5824 5810 5786 5781 5789 5795 5832 5816 5847 5865 5867 5869 5859 5853 5852 5849 5843 5839 5835 5833 5830 5829 5828 5825 5819 5813 5811 5808 5806 5802 5798 5797 5794 5792 5794 5792 5794 5795 5791 5786 5784 5783 5776 5772 5768 5760 5755 5750 5747
5811 5818 5803 5769 5780 5812 5822 5808 5841 5872 5880 5882 5882 5869 5860 5856 5852 5847 5845 5841 5838 5836 5834 5830 5825 5819 5817 5814 5810 5807 5804 5802 5801 5798 5797 5797 5798 5797 5793 5789 5787 5782 5775 5770 5763 5760 5755 5747 5743
5813 5806 5842 5817 5820 5810 5834 5841 5863 5879 5872 5878 5877 5873 5862 5860 5859 5853 5854 5851 5847 5843 5840 5836 5832 5826 5824 5820 5815 5811 5808 5805 5806 5804 5801 5800 5798 5798 5793 5791 5786 5780 5774 5767 5761 5758 5750 5744 5738
5829 5838 5805 5818 5777 5783 5824 5829 5839 5857 5870 5870 5870 5867 5864 5862 5863 5859 5859 5856 5854 5851 5848 5843 5839 5832 5830 5826 5821 5816 5813 5810 5808 5806 5802 5801 5800 5797 5795 5790 5784 5778 5771 5764 5760 5754 5746 5739 5737
5806 5811 5818 5828 5821 5805 5805 5832 5877 5869 5873 5869 5872 5868 5866 5867 5868 5865 5864 5863 5859 5858 5854 5849 5844 5838 5833 5830 5826 5820 5818 5815 5812 5810 5808 5805 5803 5799 5795 5790 5783 5776 5769 5761 5755 5749 5742 5736 5729
5821 5818 5821 5805 5796 5821 5830 5847 5888 5879 5879 5881 5877 5872 5871 5873 5873 5870 5868 5866 5861 5860 5858 5854 5850 5844 5840 5835 5829 5824 5822 5820 5817 5814 5812 5809 5805 5803 5796 5789 5781 5774 5766 5759 5753 5748 5740 5734 5727